[[{"header":{"parameterUnit":"m.s-1","parameterCategory":1,"la1":30.2991,"la2":30.254,"lo1":-89.0895,"lo2":-89.0444,"dy":0.0017,"dx":0.0017,"nx":28,"ny":28,"refTime":"2025-09-07T21:00:00:Z","depth":0,"parameterNumber":2,"parameterNumberName":"U-component_of_WINDS"},"data":[0,0,0,0,0,0,0,0,0,0,0,0,0,0,0,0,0,0,0,0,0,0,0,0,0,0,0,0,0,0,0,0,0,0,0,0,0,0,0,0,0,0,0,0,0,0,0,0,0,0,0,0,0,0,0,0,0,0,-1.1651,-1.165,0,-1.1624,-1.1623,-1.1623,-1.1577,-1.1577,-1.1576,-1.1575,-1.1548,-1.1548,-1.1548,0,0,0,0,0,0,0,0,0,0,0,0,0,-1.1662,-1.1662,-1.1651,-1.165,-1.165,-1.1624,-1.1623,-1.1623,-1.1578,-1.1577,-1.1576,-1.1575,-1.1548,-1.1548,-1.1548,0,0,0,0,0,0,0,0,0,0,0,0,0,-1.1648,-1.1662,-1.1651,-1.1624,-1.1621,-1.1624,-1.1623,-1.1623,-1.1578,-1.1577,-1.1575,-1.1574,-1.1548,-1.1548,-1.1548,-1.1574,0,0,-1.1548,-1.1548,0,0,0,0,0,0,0,0,-1.1649,-1.1648,-1.1628,-1.1626,-1.1623,-1.1603,-1.1617,-1.1607,-1.1578,-1.1594,-1.1575,-1.1573,-1.1567,-1.1565,-1.1563,-1.1573,-1.1572,-1.1548,-1.1548,-1.1548,-1.1548,0,0,0,0,0,0,0,-1.165,-1.1649,-1.164,-1.1628,-1.1625,-1.1613,-1.161,-1.1615,-1.1588,-1.1593,-1.159,-1.1587,-1.1565,-1.1563,-1.1562,-1.1571,-1.1548,-1.1548,-1.1548,-1.1548,-1.1599,-1.16,0,0,0,0,0,0,-1.1655,-1.165,-1.1641,-1.1639,-1.1633,-1.1614,-1.161,-1.161,-1.1588,-1.1583,-1.1588,-1.1585,-1.1564,-1.1562,-1.1561,-1.1589,-1.1548,-1.1548,-1.1548,-1.1598,-1.1599,-1.1601,0,0,0,0,0,0,-1.1655,-1.1655,-1.1642,-1.1644,-1.1641,-1.1615,-1.1616,-1.1611,-1.1608,-1.1584,-1.1579,-1.1591,-1.1563,-1.1561,-1.1571,-1.1588,-1.1548,-1.1548,-1.1596,-1.1598,-1.16,-1.1647,0,0,0,0,0,0,-1.1656,-1.1655,-1.1665,-1.1644,-1.1641,-1.1653,-1.1617,-1.1611,-1.1609,-1.1604,-1.1586,-1.1581,-1.1561,-1.1571,-1.1571,-1.1587,-1.1549,-1.1595,-1.1597,-1.1599,-1.1643,-1.165,-1.1655,0,0,0,0,0,-1.1656,-1.168,-1.1666,-1.1665,-1.1653,-1.1654,-1.1652,-1.1628,-1.161,-1.162,-1.1604,-1.1582,-1.1586,-1.1572,-1.1572,-1.1588,-1.1593,-1.1596,-1.1599,-1.1641,-1.1649,-1.1655,0,0,0,0,0,0,-1.1704,-1.1676,-1.1661,-1.1678,-1.1668,-1.1646,-1.1657,-1.1638,-1.1633,-1.1629,-1.16,-1.1596,-1.161,-1.16,-1.1585,-1.1612,-1.1586,-1.1589,-1.1618,-1.1625,-1.1631,-1.1633,-1.1549,0,0,0,0,0,-1.1716,-1.1719,-1.1695,-1.1712,-1.1708,-1.1684,-1.1683,-1.1666,-1.1655,-1.165,-1.1635,-1.1625,-1.1624,-1.1624,-1.1622,-1.1642,-1.1636,-1.1653,-1.1659,-1.1664,-1.1667,-1.1675,-1.1682,-1.161,-1.161,-1.161,0,0,-1.1742,-1.1727,-1.1731,-1.1721,-1.1712,-1.1715,-1.1681,-1.1686,-1.1687,-1.1651,-1.1659,-1.1648,-1.1635,-1.1649,-1.1655,-1.1642,-1.1685,-1.1667,-1.1672,-1.1672,-1.1679,-1.1685,-1.1692,-1.1612,-1.1612,-1.1611,0,0,-1.179,-1.178,-1.1792,-1.1783,-1.1769,-1.1752,-1.1756,-1.1736,-1.1726,-1.1734,-1.1706,-1.1708,-1.1707,-1.1698,-1.1694,-1.1737,-1.1716,-1.1737,-1.1768,-1.1777,-1.1782,-1.1787,-1.1802,-1.1808,-1.174,-1.174,-1.174,0,-1.1824,-1.1828,-1.1802,-1.1808,-1.1804,-1.1771,-1.1783,-1.1775,-1.1761,-1.1759,-1.1744,-1.1741,-1.173,-1.1741,-1.1752,-1.175,-1.1751,-1.1739,-1.1784,-1.1788,-1.1792,-1.1806,-1.1812,-1.1743,-1.1742,-1.1742,-1.1742,0,-1.1869,-1.1872,-1.1884,-1.1871,-1.1868,-1.1878,-1.1852,-1.1853,-1.1835,-1.182,-1.1827,-1.1813,-1.1806,-1.1808,-1.1791,-1.1816,-1.1808,-1.1789,-1.1763,-1.1802,-1.1814,-1.182,-1.1746,-1.1745,-1.1745,-1.1744,0,0,-1.1948,-1.1919,-1.1923,-1.1916,-1.1897,-1.1899,-1.1906,-1.1899,-1.19,-1.1891,-1.1896,-1.1895,-1.1876,-1.1871,-1.1853,-1.1861,-1.1895,-1.184,-1.1839,-1.185,-1.1921,-1.1935,-1.1942,-1.1881,-1.1882,-1.1882,-1.1922,0,-1.1992,-1.2003,-1.1979,-1.1995,-1.1997,-1.1964,-1.1971,-1.1959,-1.1945,-1.1944,-1.1928,-1.1927,-1.1904,-1.19,-1.1906,-1.1889,-1.1908,-1.1886,-1.1884,-1.1885,-1.1888,-1.1948,-1.1964,-1.2002,-1.1926,-1.1927,-1.1928,0,-1.2045,-1.2038,-1.2055,-1.2033,-1.2033,-1.2039,-1.203,-1.203,-1.2016,-1.2005,-1.1999,-1.1977,-1.1982,-1.1956,-1.1962,-1.1947,-1.1945,-1.1937,-1.1937,-1.1936,-1.1909,-1.1948,-1.2013,-1.2019,-1.1935,-1.1934,-1.1934,0,-1.2099,-1.2094,-1.2103,-1.2098,-1.2074,-1.2079,-1.2069,-1.2054,-1.2051,-1.2043,-1.204,-1.2033,-1.2029,-1.2024,-1.2,-1.1984,-1.2009,-1.1982,-1.1999,-1.2,-1.2006,-1.2006,-1.2071,-1.2005,-1.2005,-1.2005,-1.2005,0,-1.2151,-1.2162,-1.2127,-1.2133,-1.2144,-1.2116,-1.2128,-1.2114,-1.2101,-1.2103,-1.2074,-1.2077,-1.2046,-1.2044,-1.2026,-1.2033,-1.2032,-1.2022,-1.2017,-1.2025,-1.2026,-1.2023,-1.2019,-1.2006,-1.2006,-1.2006,-1.2006,0,-1.2214,-1.2191,-1.2198,-1.2174,-1.2168,-1.2178,-1.2157,-1.2161,-1.2144,-1.2147,-1.2146,-1.2119,-1.2116,-1.2092,-1.2084,-1.2071,-1.2085,-1.2075,-1.2089,-1.2086,-1.2105,-1.2103,-1.217,-1.2177,-1.2107,-1.2108,-1.2108,0,-1.2248,-1.2256,-1.2232,-1.2231,-1.2223,-1.2222,-1.2218,-1.2191,-1.2188,-1.2172,-1.2177,-1.2172,-1.2166,-1.2162,-1.2142,-1.2135,-1.2124,-1.2148,-1.2123,-1.213,-1.2124,-1.2123,-1.2123,-1.2154,-1.2154,-1.2155,-1.2156,0,-1.2311,-1.2299,-1.2295,-1.2287,-1.2283,-1.2275,-1.2266,-1.2267,-1.2236,-1.2234,-1.223,-1.2226,-1.2216,-1.2211,-1.22,-1.2189,-1.2167,-1.2164,-1.2167,-1.2175,-1.2183,-1.2178,-1.2104,-1.2162,-1.2162,-1.2161,-1.2161,-1.2161,-1.236,-1.2365,-1.2349,-1.2345,-1.2335,-1.2326,-1.2328,-1.2311,-1.2307,-1.2298,-1.2281,-1.228,-1.2264,-1.2247,-1.2238,-1.2236,-1.2223,-1.2228,-1.223,-1.2231,-1.2235,-1.2183,-1.2234,-1.2234,-1.2233,-1.2233,-1.2233,0,-1.2421,-1.2409,-1.2406,-1.2393,-1.2389,-1.2369,-1.2356,-1.2355,-1.2354,-1.2341,-1.2335,-1.233,-1.2324,-1.2303,-1.2295,-1.2297,-1.2287,-1.2296,-1.2295,-1.2293,-1.2247,-1.2245,-1.2304,-1.2304,-1.2304,-1.2304,-1.2304,-1.2304,-1.2453,-1.2459,-1.2445,-1.2446,-1.2433,-1.2431,-1.2426,-1.2417,-1.2407,-1.2403,-1.2397,-1.2384,-1.2367,-1.2357,-1.235,-1.2344,-1.2342,-1.2355,-1.2345,-1.2303,-1.2296,-1.229,-1.2287,-1.2355,-1.2355,-1.2391,-1.2391,-1.2391]},{"header":{"parameterUnit":"m.s-1","parameterCategory":1,"la1":30.2991,"la2":30.254,"lo1":-89.0895,"lo2":-89.0444,"dy":0.0017,"dx":0.0017,"nx":28,"ny":28,"refTime":"2025-09-07T21:00:00:Z","depth":0,"parameterNumber":3,"parameterNumberName":"V-component_of_WINDS"},"data":[0,0,0,0,0,0,0,0,0,0,0,0,0,0,0,0,0,0,0,0,0,0,0,0,0,0,0,0,0,0,0,0,0,0,0,0,0,0,0,0,0,0,0,0,0,0,0,0,0,0,0,0,0,0,0,0,0,0,-5.493,-5.4931,0,-5.4998,-5.4999,-5.5,-5.4967,-5.4966,-5.4964,-5.4962,-5.5024,-5.5027,-5.503,0,0,0,0,0,0,0,0,0,0,0,0,0,-5.4765,-5.4768,-5.493,-5.4931,-5.4932,-5.4998,-5.4999,-5.5,-5.4968,-5.4966,-5.4963,-5.4961,-5.5023,-5.5027,-5.5031,0,0,0,0,0,0,0,0,0,0,0,0,0,-5.4835,-5.4769,-5.493,-5.4924,-5.4924,-5.4998,-5.4999,-5.5,-5.4968,-5.4965,-5.4963,-5.4961,-5.5022,-5.5026,-5.5031,-5.5113,0,0,-5.5046,-5.5048,0,0,0,0,0,0,0,0,-5.4831,-5.4841,-5.4924,-5.4924,-5.4925,-5.4972,-5.4964,-5.5038,-5.4969,-5.4951,-5.4962,-5.4959,-5.5008,-5.5014,-5.5032,-5.5116,-5.5118,-5.5047,-5.5049,-5.5052,-5.5053,0,0,0,0,0,0,0,-5.4826,-5.4838,-5.4957,-5.4925,-5.4926,-5.4915,-5.4923,-5.4977,-5.4993,-5.4952,-5.495,-5.4959,-5.5008,-5.5028,-5.5033,-5.5119,-5.5046,-5.5051,-5.5054,-5.5056,-5.5273,-5.5276,0,0,0,0,0,0,-5.4823,-5.4834,-5.4955,-5.4959,-5.4871,-5.4921,-5.4929,-5.4959,-5.4992,-5.4995,-5.4961,-5.4957,-5.5021,-5.5028,-5.5035,-5.5133,-5.5052,-5.5056,-5.5059,-5.527,-5.5273,-5.5277,0,0,0,0,0,0,-5.4819,-5.4834,-5.4952,-5.4896,-5.491,-5.4926,-5.4961,-5.4962,-5.4982,-5.4999,-5.5001,-5.4979,-5.5019,-5.5029,-5.5094,-5.5134,-5.5058,-5.5063,-5.5267,-5.5271,-5.5275,-5.5328,0,0,0,0,0,0,-5.4815,-5.4833,-5.4865,-5.4897,-5.4914,-5.5012,-5.4963,-5.4965,-5.4991,-5.4987,-5.5016,-5.5019,-5.5018,-5.5087,-5.5099,-5.514,-5.5066,-5.5263,-5.5269,-5.5274,-5.5323,-5.5334,-5.5343,0,0,0,0,0,-5.4809,-5.4875,-5.4867,-5.4882,-5.4955,-5.5014,-5.5023,-5.5023,-5.4994,-5.5026,-5.5038,-5.5018,-5.5129,-5.5094,-5.5107,-5.515,-5.526,-5.5267,-5.5273,-5.5318,-5.5331,-5.5343,0,0,0,0,0,0,-5.4844,-5.4879,-5.487,-5.495,-5.498,-5.5008,-5.5048,-5.5037,-5.5073,-5.5067,-5.5063,-5.507,-5.5138,-5.5151,-5.5112,-5.5231,-5.519,-5.5199,-5.5219,-5.5232,-5.5242,-5.5236,-5.5071,0,0,0,0,0,-5.4862,-5.491,-5.4937,-5.5004,-5.502,-5.5032,-5.5057,-5.5055,-5.5085,-5.5096,-5.5112,-5.514,-5.5181,-5.5207,-5.5246,-5.5325,-5.5331,-5.5361,-5.5371,-5.538,-5.5387,-5.5429,-5.5443,-5.5298,-5.5298,-5.5297,0,0,-5.4897,-5.4922,-5.4952,-5.5012,-5.5034,-5.5082,-5.5042,-5.5094,-5.5128,-5.5103,-5.5167,-5.518,-5.521,-5.5283,-5.5316,-5.5296,-5.5429,-5.5388,-5.5394,-5.5397,-5.5437,-5.5451,-5.5463,-5.5302,-5.5301,-5.5301,0,0,-5.4986,-5.5011,-5.507,-5.5094,-5.5131,-5.5139,-5.5153,-5.5185,-5.5194,-5.5258,-5.5241,-5.5281,-5.5352,-5.5374,-5.5395,-5.5495,-5.5478,-5.5508,-5.5559,-5.5601,-5.5612,-5.5622,-5.5657,-5.567,-5.5516,-5.5516,-5.5516,0,-5.5024,-5.5097,-5.51,-5.5154,-5.518,-5.5164,-5.5223,-5.5246,-5.5292,-5.5309,-5.5287,-5.5377,-5.5396,-5.5474,-5.5499,-5.5517,-5.5531,-5.5503,-5.5611,-5.5621,-5.5631,-5.5663,-5.5677,-5.5519,-5.5519,-5.5518,-5.5518,0,-5.5142,-5.5193,-5.5236,-5.5285,-5.5316,-5.5372,-5.5382,-5.5413,-5.5409,-5.5419,-5.5484,-5.5508,-5.5551,-5.557,-5.5565,-5.5647,-5.5634,-5.5612,-5.557,-5.5648,-5.5678,-5.5691,-5.5524,-5.5523,-5.5522,-5.5521,0,0,-5.5251,-5.5304,-5.5319,-5.5342,-5.5382,-5.542,-5.5475,-5.5521,-5.5547,-5.558,-5.5625,-5.5687,-5.5668,-5.5691,-5.5689,-5.5726,-5.5803,-5.5699,-5.57,-5.5716,-5.5894,-5.5909,-5.5924,-5.5793,-5.5796,-5.5798,-5.5891,0,-5.5341,-5.5441,-5.5446,-5.5535,-5.5582,-5.5569,-5.5616,-5.5645,-5.5657,-5.5696,-5.5708,-5.5752,-5.5724,-5.5738,-5.5774,-5.5786,-5.5838,-5.578,-5.5832,-5.5834,-5.5823,-5.594,-5.5955,-5.6042,-5.5903,-5.5905,-5.5907,0,-5.5459,-5.55,-5.5594,-5.563,-5.565,-5.5693,-5.5736,-5.5775,-5.5807,-5.5813,-5.5841,-5.5834,-5.5889,-5.5848,-5.5922,-5.5882,-5.5904,-5.5914,-5.5917,-5.592,-5.5873,-5.5944,-5.607,-5.6082,-5.5926,-5.5924,-5.5923,0,-5.5527,-5.5605,-5.5672,-5.5692,-5.5735,-5.5766,-5.5785,-5.5816,-5.5843,-5.588,-5.5898,-5.594,-5.5962,-5.5994,-5.5998,-5.5968,-5.6072,-5.6031,-5.6076,-5.6076,-5.6096,-5.6094,-5.6225,-5.6114,-5.6114,-5.6114,-5.6113,0,-5.5626,-5.5683,-5.5704,-5.5744,-5.5809,-5.5815,-5.5878,-5.5894,-5.5922,-5.5964,-5.5955,-5.5994,-5.5999,-5.6039,-5.6043,-5.6103,-5.6113,-5.6118,-5.6117,-5.6117,-5.6116,-5.6129,-5.6123,-5.6117,-5.6116,-5.6116,-5.6115,0,-5.5711,-5.5727,-5.5799,-5.5836,-5.5847,-5.5893,-5.5923,-5.5961,-5.5974,-5.6027,-5.604,-5.6058,-5.6105,-5.6114,-5.6168,-5.617,-5.6242,-5.6236,-5.6232,-5.623,-5.6274,-5.6269,-5.6416,-5.6435,-5.6313,-5.6315,-5.6316,0,-5.5771,-5.5816,-5.586,-5.5889,-5.5911,-5.5958,-5.5987,-5.5996,-5.6026,-5.6068,-5.6101,-5.6148,-5.6186,-5.6261,-5.6277,-5.6319,-5.6313,-5.6362,-5.6319,-5.6318,-5.6312,-5.6308,-5.6312,-5.6369,-5.6371,-5.6372,-5.6373,0,-5.5877,-5.5884,-5.5928,-5.5976,-5.6012,-5.6049,-5.6084,-5.6108,-5.6121,-5.6155,-5.6205,-5.6235,-5.6293,-5.6339,-5.6381,-5.6398,-5.6387,-5.6387,-5.6399,-5.6398,-5.6392,-5.6394,-5.6252,-5.6382,-5.6381,-5.6381,-5.638,-5.638,-5.595,-5.599,-5.6027,-5.6077,-5.6106,-5.6139,-5.6178,-5.6197,-5.6239,-5.6289,-5.6291,-5.6345,-5.6377,-5.6434,-5.6454,-5.6495,-5.6479,-5.6497,-5.6501,-5.6505,-5.6508,-5.6389,-5.6503,-5.6503,-5.6502,-5.6502,-5.6502,0,-5.6053,-5.6078,-5.6124,-5.6176,-5.6215,-5.6206,-5.6245,-5.6277,-5.6326,-5.6359,-5.6398,-5.6455,-5.6501,-5.6522,-5.6567,-5.6595,-5.6591,-5.6606,-5.6603,-5.6607,-5.6521,-5.6505,-5.6609,-5.6609,-5.6609,-5.6609,-5.6609,-5.6609,-5.6111,-5.6178,-5.619,-5.627,-5.6294,-5.635,-5.6373,-5.6403,-5.643,-5.6495,-5.6535,-5.655,-5.6578,-5.6625,-5.6665,-5.667,-5.6686,-5.6703,-5.6705,-5.6624,-5.6613,-5.6602,-5.6587,-5.6707,-5.6707,-5.6788,-5.6789,-5.6789]}]]